Location: Unspecified
(0.0000°N, 0.0000°E)
Time: 01:31:31
(UTC+00:00)

Tiangong 2 - Pass Details

Date: 12 January 2018
Orbit: 384 x 390 km, 42.8° (Epoch: 16 January)

Event Time Altitude Azimuth Distance (km) Brightness Sun altitude
Exits shadow 04:49:26 - 210° (SSW) 2,127 4.8 -18.3°
Reaches altitude 10° 04:51:17 10° 201° (SSW) 1,406 3.9 -17.8°
Maximum altitude 04:54:11 32° 135° (SE) 685 2.9 -17.2°
Drops below altitude 10° 04:57:04 10° 69° (ENE) 1,404 4.6 -16.5°
Sets 04:59:15 0° 59° (ENE) 2,257 5.5 -16.0°
